Time,TemperatureF,DewpointF,PressureIn,WindDirection,WindDirectionDegrees,WindSpeedMPH,WindSpeedGustMPH,Humidity,HourlyPrecipIn,Conditions,Clouds,dailyrainin,SoftwareType,DateUTC
2013-03-06 00:00:00,55.0,25.6,30.15,WSW,237,5.0,6.0,32,0.00,CLR,,0.00,WeatherDisplay:10.37,2013-03-06 07:00:00,
2013-03-06 00:10:00,56.0,25.8,30.16,WSW,247,5.0,7.0,31,0.00,CLR,,0.00,WeatherDisplay:10.37,2013-03-06 07:10:00,
2013-03-06 00:20:00,59.0,25.0,30.14,SW,229,7.0,12.0,27,0.00,CLR,,0.00,WeatherDisplay:10.37,2013-03-06 07:20:00,
2013-03-06 00:30:00,58.0,25.0,30.13,SW,225,3.0,7.0,28,0.00,CLR,,0.00,WeatherDisplay:10.37,2013-03-06 07:30:00,
2013-03-06 00:40:00,58.0,25.0,30.14,SW,225,6.0,7.0,28,0.00,CLR,,0.00,WeatherDisplay:10.37,2013-03-06 07:40:00,
2013-03-06 00:50:00,59.0,25.0,30.14,SW,224,5.0,9.0,27,0.00,CLR,,0.00,WeatherDisplay:10.37,2013-03-06 07:50:00,
2013-03-06 01:00:00,58.0,24.2,30.13,SW,220,3.0,6.0,27,0.00,CLR,,0.00,WeatherDisplay:10.37,2013-03-06 08:00:00,
2013-03-06 01:10:00,59.0,25.0,30.13,WSW,239,6.0,7.0,27,0.00,CLR,,0.00,WeatherDisplay:10.37,2013-03-06 08:10:00,
2013-03-06 01:20:00,59.0,24.1,30.13,WSW,247,7.0,10.0,26,0.00,CLR,,0.00,WeatherDisplay:10.37,2013-03-06 08:20:00,
2013-03-06 01:30:00,59.0,24.1,30.12,WSW,248,7.0,10.0,26,0.00,CLR,,0.00,WeatherDisplay:10.37,2013-03-06 08:30:00,
2013-03-06 01:40:00,59.0,24.1,30.13,WSW,246,7.0,9.0,26,0.00,CLR,,0.00,WeatherDisplay:10.37,2013-03-06 08:40:00,
2013-03-06 01:50:00,58.0,23.3,30.13,SW,231,2.0,7.0,26,0.00,CLR,,0.00,WeatherDisplay:10.37,2013-03-06 08:50:00,
2013-03-06 02:00:00,57.0,24.2,30.13,SSW,202,0.0,1.0,28,0.00,CLR,,0.00,WeatherDisplay:10.37,2013-03-06 09:00:00,
2013-03-06 02:10:00,56.0,24.2,30.14,South,191,2.0,5.0,29,0.00,CLR,,0.00,WeatherDisplay:10.37,2013-03-06 09:10:00,
2013-03-06 02:20:00,56.0,24.2,30.13,SE,141,2.0,6.0,29,0.00,CLR,,0.00,WeatherDisplay:10.37,2013-03-06 09:20:00,
2013-03-06 02:30:00,55.0,24.1,30.14,SSE,165,2.0,5.0,30,0.00,CLR,,0.00,WeatherDisplay:10.37,2013-03-06 09:30:00,
2013-03-06 02:40:00,54.0,25.5,30.14,South,180,0.0,3.0,33,0.00,CLR,,0.00,WeatherDisplay:10.37,2013-03-06 09:40:00,
2013-03-06 02:50:00,52.0,24.5,30.14,South,180,0.0,0.0,34,0.00,CLR,,0.00,WeatherDisplay:10.37,2013-03-06 09:50:00,
2013-03-06 03:00:00,51.0,22.9,30.15,South,180,0.0,1.0,33,0.00,CLR,,0.00,WeatherDisplay:10.37,2013-03-06 10:00:00,
2013-03-06 03:10:00,51.0,22.9,30.15,South,180,1.0,2.0,33,0.00,CLR,,0.00,WeatherDisplay:10.37,2013-03-06 10:10:00,
2013-03-06 03:20:00,51.0,22.9,30.15,South,180,2.0,4.0,33,0.00,CLR,,0.00,WeatherDisplay:10.37,2013-03-06 10:20:00,
2013-03-06 03:30:00,51.0,22.9,30.15,South,180,0.0,3.0,33,0.00,CLR,,0.00,WeatherDisplay:10.37,2013-03-06 10:30:00,
2013-03-06 03:40:00,50.0,23.4,30.15,South,180,0.0,1.0,35,0.00,CLR,,0.00,WeatherDisplay:10.37,2013-03-06 10:40:00,
2013-03-06 03:50:00,50.0,23.4,30.15,South,180,0.0,2.0,35,0.00,CLR,,0.00,WeatherDisplay:10.37,2013-03-06 10:50:00,
2013-03-06 04:00:00,50.0,23.4,30.15,South,180,0.0,2.0,35,0.00,CLR,,0.00,WeatherDisplay:10.37,2013-03-06 11:00:00,
2013-03-06 04:10:00,48.0,22.9,30.16,South,180,0.0,0.0,37,0.00,CLR,,0.00,WeatherDisplay:10.37,2013-03-06 11:10:00,
2013-03-06 04:20:00,46.8,23.7,30.17,South,170,0.0,2.0,40,0.00,CLR,,0.00,WeatherDisplay:10.37,2013-03-06 11:20:00,
2013-03-06 04:30:00,45.0,24.9,30.18,NNE,22,0.0,4.0,45,0.00,CLR,,0.00,WeatherDisplay:10.37,2013-03-06 11:30:00,
2013-03-06 04:40:00,44.0,24.5,30.19,NNE,22,1.0,3.0,46,0.00,CLR,,0.00,WeatherDisplay:10.37,2013-03-06 11:40:00,
2013-03-06 04:50:00,45.0,25.4,30.19,NNE,22,1.0,2.0,46,0.00,CLR,,0.00,WeatherDisplay:10.37,2013-03-06 11:50:00,
2013-03-06 05:00:00,44.0,24.5,30.19,NE,51,2.0,6.0,46,0.00,CLR,,0.00,WeatherDisplay:10.37,2013-03-06 12:00:00,
2013-03-06 05:10:00,43.0,23.6,30.20,ENE,67,0.0,3.0,46,0.00,CLR,,0.00,WeatherDisplay:10.37,2013-03-06 12:10:00,
2013-03-06 05:20:00,42.0,24.2,30.20,ENE,67,0.0,0.0,49,0.00,CLR,,0.00,WeatherDisplay:10.37,2013-03-06 12:20:00,
2013-03-06 05:30:00,42.0,24.2,30.21,NW,322,3.0,5.0,49,0.00,CLR,,0.00,WeatherDisplay:10.37,2013-03-06 12:30:00,
2013-03-06 05:40:00,44.0,25.0,30.21,NW,315,0.0,6.0,47,0.00,CLR,,0.00,WeatherDisplay:10.37,2013-03-06 12:40:00,
2013-03-06 05:50:00,46.0,25.3,30.19,WNW,292,5.0,7.0,44,0.00,CLR,,0.00,WeatherDisplay:10.37,2013-03-06 12:50:00,
2013-03-06 06:00:00,46.0,24.7,30.19,WNW,292,5.0,7.0,43,0.00,CLR,,0.00,WeatherDisplay:10.37,2013-03-06 13:00:00,
2013-03-06 06:10:00,46.0,24.7,30.19,WNW,292,0.0,5.0,43,0.00,CLR,,0.00,WeatherDisplay:10.37,2013-03-06 13:10:00,
2013-03-06 06:20:00,46.0,24.7,30.19,WNW,292,0.0,5.0,43,0.00,CLR,,0.00,WeatherDisplay:10.37,2013-03-06 13:20:00,
2013-03-06 06:30:00,46.0,24.7,30.20,WNW,292,2.0,3.0,43,0.00,CLR,,0.00,WeatherDisplay:10.37,2013-03-06 13:30:00,
2013-03-06 06:40:00,46.0,25.8,30.20,WNW,292,0.0,3.0,45,0.00,CLR,,0.00,WeatherDisplay:10.37,2013-03-06 13:40:00,
2013-03-06 06:50:00,45.0,26.0,30.20,NW,305,1.0,3.0,47,0.00,CLR,,0.00,WeatherDisplay:10.37,2013-03-06 13:50:00,
2013-03-06 07:00:00,44.0,28.0,30.21,NE,44,6.0,7.0,53,0.00,CLR,,0.00,WeatherDisplay:10.37,2013-03-06 14:00:00,
2013-03-06 07:10:00,44.0,28.0,30.21,NE,45,6.0,7.0,53,0.00,CLR,,0.00,WeatherDisplay:10.37,2013-03-06 14:10:00,
2013-03-06 07:20:00,44.0,27.5,30.21,NNE,22,3.0,7.0,52,0.00,CLR,,0.00,WeatherDisplay:10.37,2013-03-06 14:20:00,
2013-03-06 07:30:00,44.0,27.5,30.21,NNE,22,5.0,6.0,52,0.00,CLR,,0.00,WeatherDisplay:10.37,2013-03-06 14:30:00,
2013-03-06 07:40:00,46.0,27.4,30.21,NNE,24,3.0,7.0,48,0.00,CLR,,0.00,WeatherDisplay:10.37,2013-03-06 14:40:00,
2013-03-06 07:50:00,48.0,27.6,30.20,NE,45,3.0,7.0,45,0.00,CLR,,0.00,WeatherDisplay:10.37,2013-03-06 14:50:00,
2013-03-06 08:00:00,50.0,28.4,30.19,NE,45,5.0,5.0,43,0.00,CLR,,0.00,WeatherDisplay:10.37,2013-03-06 15:00:00,
2013-03-06 08:10:00,52.0,28.4,30.19,NE,45,3.0,6.0,40,0.00,CLR,,0.00,WeatherDisplay:10.37,2013-03-06 15:10:00,
2013-03-06 08:20:00,54.0,27.6,30.17,NE,45,3.0,6.0,36,0.00,CLR,,0.00,WeatherDisplay:10.37,2013-03-06 15:20:00,
2013-03-06 08:30:00,56.2,28.2,30.16,NE,45,0.0,4.0,34,0.00,CLR,,0.00,WeatherDisplay:10.37,2013-03-06 15:30:00,
2013-03-06 08:40:00,59.0,28.4,30.15,NE,45,0.0,2.0,31,0.00,CLR,,0.00,WeatherDisplay:10.37,2013-03-06 15:40:00,
2013-03-06 08:50:00,60.0,26.8,30.15,NNE,33,0.0,0.0,28,0.00,CLR,,0.00,WeatherDisplay:10.37,2013-03-06 15:50:00,
2013-03-06 09:00:00,61.2,26.9,30.14,NNW,339,0.0,0.0,27,0.00,CLR,,0.00,WeatherDisplay:10.37,2013-03-06 16:00:00,
2013-03-06 09:10:00,64.0,26.4,30.13,South,190,3.0,7.0,24,0.00,CLR,,0.00,WeatherDisplay:10.37,2013-03-06 16:10:00,
2013-03-06 09:20:00,64.0,24.4,30.13,South,184,5.0,9.0,22,0.00,CLR,,0.00,WeatherDisplay:10.37,2013-03-06 16:20:00,
2013-03-06 09:30:00,64.0,24.4,30.13,South,185,8.0,13.0,22,0.00,CLR,,0.00,WeatherDisplay:10.37,2013-03-06 16:30:00,
2013-03-06 09:40:00,63.2,22.6,30.13,SSW,196,8.0,12.0,21,0.00,CLR,,0.00,WeatherDisplay:10.37,2013-03-06 16:40:00,
2013-03-06 09:50:00,64.0,26.4,30.13,SSW,204,7.0,12.0,24,0.00,CLR,,0.00,WeatherDisplay:10.37,2013-03-06 16:50:00,
2013-03-06 10:00:00,66.2,23.9,30.12,SSW,197,5.0,9.0,20,0.00,CLR,,0.00,WeatherDisplay:10.37,2013-03-06 17:00:00,
2013-03-06 10:10:00,68.2,21.7,30.11,South,184,5.0,10.0,17,0.00,CLR,,0.00,WeatherDisplay:10.37,2013-03-06 17:10:00,
2013-03-06 10:20:00,71.0,22.5,30.10,South,177,7.0,12.0,16,0.00,CLR,,0.00,WeatherDisplay:10.37,2013-03-06 17:20:00,
2013-03-06 10:30:00,72.0,21.8,30.09,SSE,159,7.0,10.0,15,0.00,CLR,,0.00,WeatherDisplay:10.37,2013-03-06 17:30:00,
2013-03-06 10:40:00,71.0,21.0,30.09,SE,145,6.0,13.0,15,0.00,CLR,,0.00,WeatherDisplay:10.37,2013-03-06 17:40:00,
2013-03-06 10:50:00,71.0,22.5,30.09,SSE,150,7.0,10.0,16,0.00,CLR,,0.00,WeatherDisplay:10.37,2013-03-06 17:50:00,
2013-03-06 11:00:00,72.0,21.8,30.09,SSE,161,7.0,15.0,15,0.00,CLR,,0.00,WeatherDisplay:10.37,2013-03-06 18:00:00,
2013-03-06 11:10:00,73.0,22.6,30.08,SSE,165,6.0,13.0,15,0.00,CLR,,0.00,WeatherDisplay:10.37,2013-03-06 18:10:00,
2013-03-06 11:20:00,74.0,23.4,30.08,South,179,5.0,13.0,15,0.00,CLR,,0.00,WeatherDisplay:10.37,2013-03-06 18:20:00,
2013-03-06 11:30:00,74.0,24.9,30.07,SSW,196,7.0,12.0,16,0.00,CLR,,0.00,WeatherDisplay:10.37,2013-03-06 18:30:00,
2013-03-06 11:40:00,75.0,25.7,30.06,South,187,8.0,12.0,16,0.00,CLR,,0.00,WeatherDisplay:10.37,2013-03-06 18:40:00,
2013-03-06 11:50:00,76.0,28.0,30.06,South,184,5.0,10.0,17,0.00,CLR,,0.00,WeatherDisplay:10.37,2013-03-06 18:50:00,
2013-03-06 12:00:00,76.0,28.0,30.04,SSE,168,5.0,13.0,17,0.00,CLR,,0.00,WeatherDisplay:10.37,2013-03-06 19:00:00,
2013-03-06 12:10:00,76.0,29.4,30.05,SSW,203,9.0,17.0,18,0.00,CLR,,0.00,WeatherDisplay:10.37,2013-03-06 19:10:00,
2013-03-06 12:20:00,76.0,29.4,30.04,WSW,251,6.0,15.0,18,0.00,CLR,,0.00,WeatherDisplay:10.37,2013-03-06 19:20:00,
2013-03-06 12:30:00,75.0,28.6,30.04,SW,215,3.0,12.0,18,0.00,CLR,,0.00,WeatherDisplay:10.37,2013-03-06 19:30:00,
2013-03-06 12:40:00,75.2,28.7,30.03,SSW,193,8.0,13.0,18,0.00,CLR,,0.00,WeatherDisplay:10.37,2013-03-06 19:40:00,
2013-03-06 12:50:00,75.2,28.8,30.03,SSW,209,8.0,13.0,18,0.00,CLR,,0.00,WeatherDisplay:10.37,2013-03-06 19:50:00,
2013-03-06 13:00:00,76.0,29.4,30.02,South,188,9.0,13.0,18,0.00,CLR,,0.00,WeatherDisplay:10.37,2013-03-06 20:00:00,
2013-03-06 13:10:00,76.0,29.4,30.01,SW,222,10.0,15.0,18,0.00,CLR,,0.00,WeatherDisplay:10.37,2013-03-06 20:10:00,
2013-03-06 13:20:00,77.0,30.2,30.00,SW,228,13.0,20.0,18,0.00,CLR,,0.00,WeatherDisplay:10.37,2013-03-06 20:20:00,
2013-03-06 13:30:00,76.2,29.6,30.00,SW,225,13.0,17.0,18,0.00,CLR,,0.00,WeatherDisplay:10.37,2013-03-06 20:30:00,
2013-03-06 13:40:00,77.0,30.2,29.99,SSW,205,15.0,20.0,18,0.00,CLR,,0.00,WeatherDisplay:10.37,2013-03-06 20:40:00,
2013-03-06 13:50:00,78.0,29.6,29.97,South,188,14.0,20.0,17,0.00,CLR,,0.00,WeatherDisplay:10.37,2013-03-06 20:50:00,
2013-03-06 14:00:00,78.0,29.6,29.97,SSW,198,13.0,22.0,17,0.00,CLR,,0.00,WeatherDisplay:10.37,2013-03-06 21:00:00,
2013-03-06 14:10:00,78.0,29.6,29.97,SSW,209,15.0,21.0,17,0.00,CLR,,0.00,WeatherDisplay:10.37,2013-03-06 21:10:00,
2013-03-06 14:20:00,78.0,31.0,29.97,SW,225,10.0,22.0,18,0.00,CLR,,0.00,WeatherDisplay:10.37,2013-03-06 21:20:00,
2013-03-06 14:30:00,78.0,29.6,29.96,SW,221,14.0,18.0,17,0.00,CLR,,0.00,WeatherDisplay:10.37,2013-03-06 21:30:00,
2013-03-06 14:40:00,77.0,27.3,29.96,SSW,212,13.0,24.0,16,0.00,CLR,,0.00,WeatherDisplay:10.37,2013-03-06 21:40:00,
2013-03-06 14:50:00,78.0,28.1,29.96,SSW,209,15.0,20.0,16,0.00,CLR,,0.00,WeatherDisplay:10.37,2013-03-06 21:50:00,
2013-03-06 15:00:00,78.0,28.1,29.95,SSW,204,15.0,23.0,16,0.00,CLR,,0.00,WeatherDisplay:10.37,2013-03-06 22:00:00,
2013-03-06 15:10:00,78.8,28.8,29.95,SSW,205,13.0,20.0,16,0.00,CLR,,0.00,WeatherDisplay:10.37,2013-03-06 22:10:00,
2013-03-06 15:20:00,78.0,28.1,29.95,SW,220,13.0,24.0,16,0.00,CLR,,0.00,WeatherDisplay:10.37,2013-03-06 22:20:00,
2013-03-06 15:30:00,78.2,26.7,29.94,SSW,201,12.0,20.0,15,0.00,CLR,,0.00,WeatherDisplay:10.37,2013-03-06 22:30:00,
2013-03-06 15:40:00,78.0,23.1,29.95,SSW,202,14.0,22.0,13,0.00,CLR,,0.00,WeatherDisplay:10.37,2013-03-06 22:40:00,
2013-03-06 15:50:00,78.0,26.6,29.95,SSW,198,14.0,21.0,15,0.00,CLR,,0.00,WeatherDisplay:10.37,2013-03-06 22:50:00,
2013-03-06 16:00:00,78.0,23.1,29.95,SSW,202,14.0,20.0,13,0.00,CLR,,0.00,WeatherDisplay:10.37,2013-03-06 23:00:00,
2013-03-06 16:10:00,78.0,23.1,29.95,SSW,208,10.0,17.0,13,0.00,CLR,,0.00,WeatherDisplay:10.37,2013-03-06 23:10:00,
2013-03-06 16:20:00,77.0,22.4,29.95,SW,222,10.0,23.0,13,0.00,CLR,,0.00,WeatherDisplay:10.37,2013-03-06 23:20:00,
2013-03-06 16:30:00,77.0,22.4,29.95,SW,215,14.0,20.0,13,0.00,CLR,,0.00,WeatherDisplay:10.37,2013-03-06 23:30:00,
2013-03-06 16:40:00,77.0,13.8,29.95,SSW,200,14.0,29.0,9,0.00,CLR,,0.00,WeatherDisplay:10.37,2013-03-06 23:40:00,
2013-03-06 16:50:00,76.0,13.0,29.95,SSW,201,16.0,24.0,9,0.00,CLR,,0.00,WeatherDisplay:10.37,2013-03-06 23:50:00,
2013-03-06 17:00:00,76.0,13.0,29.95,SSW,201,15.0,20.0,9,0.00,CLR,,0.00,WeatherDisplay:10.37,2013-03-07 00:00:00,
2013-03-06 17:10:00,75.0,16.9,29.96,SSW,210,12.0,20.0,11,0.00,CLR,,0.00,WeatherDisplay:10.37,2013-03-07 00:10:00,
2013-03-06 17:20:00,75.0,18.9,29.96,SSW,206,13.0,22.0,12,0.00,CLR,,0.00,WeatherDisplay:10.37,2013-03-07 00:20:00,
2013-03-06 17:30:00,74.0,16.1,29.96,SSW,206,13.0,20.0,11,0.00,CLR,,0.00,WeatherDisplay:10.37,2013-03-07 00:30:00,
2013-03-06 17:40:00,73.0,19.2,29.97,SW,216,12.0,20.0,13,0.00,CLR,,0.00,WeatherDisplay:10.37,2013-03-07 00:40:00,
2013-03-06 17:50:00,72.9,19.1,29.98,SSW,213,9.0,17.0,13,0.00,CLR,,0.00,WeatherDisplay:10.37,2013-03-07 00:50:00,
2013-03-06 18:00:00,71.0,13.8,29.98,SSW,212,12.0,17.0,11,0.00,CLR,,0.00,WeatherDisplay:10.37,2013-03-07 01:00:00,
2013-03-06 18:10:00,70.8,15.7,29.99,SSW,208,9.0,16.0,12,0.00,CLR,,0.00,WeatherDisplay:10.37,2013-03-07 01:10:00,
2013-03-06 18:20:00,69.0,16.0,29.99,SSW,203,8.0,13.0,13,0.00,CLR,,0.00,WeatherDisplay:10.37,2013-03-07 01:20:00,
2013-03-06 18:30:00,67.0,16.2,30.01,SSW,210,7.0,12.0,14,0.00,CLR,,0.00,WeatherDisplay:10.37,2013-03-07 01:30:00,
2013-03-06 18:40:00,66.0,19.9,30.01,SW,216,7.0,10.0,17,0.00,CLR,,0.00,WeatherDisplay:10.37,2013-03-07 01:40:00,
2013-03-06 18:50:00,66.0,21.2,30.02,SW,230,7.0,10.0,18,0.00,CLR,,0.00,WeatherDisplay:10.37,2013-03-07 01:50:00,
2013-03-06 19:00:00,66.0,23.7,30.02,SW,233,7.0,10.0,20,0.00,CLR,,0.00,WeatherDisplay:10.37,2013-03-07 02:00:00,
2013-03-06 19:10:00,65.0,22.9,30.02,WSW,243,7.0,9.0,20,0.00,CLR,,0.00,WeatherDisplay:10.37,2013-03-07 02:10:00,
2013-03-06 19:20:00,64.0,24.4,30.03,WSW,247,8.0,10.0,22,0.00,CLR,,0.00,WeatherDisplay:10.37,2013-03-07 02:20:00,
2013-03-06 19:30:00,64.0,24.4,30.03,WSW,247,7.0,10.0,22,0.00,CLR,,0.00,WeatherDisplay:10.37,2013-03-07 02:30:00,
2013-03-06 19:40:00,64.0,24.4,30.03,WSW,246,8.0,12.0,22,0.00,CLR,,0.00,WeatherDisplay:10.37,2013-03-07 02:40:00,
2013-03-06 19:50:00,63.0,23.5,30.03,WSW,248,7.0,10.0,22,0.00,CLR,,0.00,WeatherDisplay:10.37,2013-03-07 02:50:00,
2013-03-06 20:00:00,62.0,23.7,30.05,West,267,9.0,12.0,23,0.00,CLR,,0.00,WeatherDisplay:10.37,2013-03-07 03:00:00,
2013-03-06 20:10:00,61.0,22.9,30.05,West,267,7.0,12.0,23,0.00,CLR,,0.00,WeatherDisplay:10.37,2013-03-07 03:10:00,
2013-03-06 20:20:00,60.8,22.8,30.05,West,269,6.0,8.0,23,0.00,CLR,,0.00,WeatherDisplay:10.37,2013-03-07 03:20:00,
2013-03-06 20:30:00,60.0,21.0,30.06,West,264,2.0,7.0,22,0.00,CLR,,0.00,WeatherDisplay:10.37,2013-03-07 03:30:00,
2013-03-06 20:40:00,58.0,20.4,30.07,West,270,0.0,2.0,23,0.00,CLR,,0.00,WeatherDisplay:10.37,2013-03-07 03:40:00,
2013-03-06 20:50:00,56.0,19.7,30.07,West,270,1.0,2.0,24,0.00,CLR,,0.00,WeatherDisplay:10.37,2013-03-07 03:50:00,
2013-03-06 21:00:00,54.0,21.6,30.09,East,90,5.0,7.0,28,0.00,CLR,,0.00,WeatherDisplay:10.37,2013-03-07 04:00:00,
2013-03-06 21:10:00,55.2,22.6,30.09,ENE,70,2.0,8.0,28,0.00,CLR,,0.00,WeatherDisplay:10.37,2013-03-07 04:10:00,
2013-03-06 21:20:00,55.0,21.6,30.08,ENE,76,8.0,10.0,27,0.00,CLR,,0.00,WeatherDisplay:10.37,2013-03-07 04:20:00,
2013-03-06 21:30:00,55.0,22.4,30.08,ENE,77,7.0,15.0,28,0.00,CLR,,0.00,WeatherDisplay:10.37,2013-03-07 04:30:00,
2013-03-06 21:40:00,54.0,22.4,30.09,East,81,3.0,12.0,29,0.00,CLR,,0.00,WeatherDisplay:10.37,2013-03-07 04:40:00,
2013-03-06 21:50:00,53.0,21.6,30.10,ENE,58,5.0,6.0,29,0.00,CLR,,0.00,WeatherDisplay:10.37,2013-03-07 04:50:00,
2013-03-06 22:00:00,51.0,20.6,30.11,ENE,77,2.0,6.0,30,0.00,CLR,,0.00,WeatherDisplay:10.37,2013-03-07 05:00:00,
2013-03-06 22:10:00,50.0,19.7,30.11,SW,225,0.0,3.0,30,0.00,CLR,,0.00,WeatherDisplay:10.37,2013-03-07 05:10:00,
2013-03-06 22:20:00,49.0,20.4,30.12,SW,225,0.0,1.0,32,0.00,CLR,,0.00,WeatherDisplay:10.37,2013-03-07 05:20:00,
2013-03-06 22:30:00,49.0,20.4,30.12,SW,225,0.0,1.0,32,0.00,CLR,,0.00,WeatherDisplay:10.37,2013-03-07 05:30:00,
2013-03-06 22:40:00,48.0,19.5,30.13,SW,225,0.0,1.0,32,0.00,CLR,,0.00,WeatherDisplay:10.37,2013-03-07 05:40:00,
2013-03-06 22:50:00,48.0,19.5,30.13,SW,225,0.0,0.0,32,0.00,CLR,,0.00,WeatherDisplay:10.37,2013-03-07 05:50:00,
2013-03-06 23:00:00,47.0,19.3,30.13,SW,225,0.0,3.0,33,0.00,CLR,,0.00,WeatherDisplay:10.37,2013-03-07 06:00:00,
2013-03-06 23:10:00,47.0,20.0,30.13,SW,225,0.0,0.0,34,0.00,CLR,,0.00,WeatherDisplay:10.37,2013-03-07 06:10:00,
2013-03-06 23:20:00,46.0,21.1,30.14,North,4,3.0,6.0,37,0.00,CLR,,0.00,WeatherDisplay:10.37,2013-03-07 06:20:00,
2013-03-06 23:30:00,46.0,21.1,30.14,North,360,2.0,5.0,37,0.00,CLR,,0.00,WeatherDisplay:10.37,2013-03-07 06:30:00,
2013-03-06 23:40:00,45.0,20.9,30.13,North,350,2.0,4.0,38,0.00,CLR,,0.00,WeatherDisplay:10.37,2013-03-07 06:40:00,
2013-03-06 23:50:00,45.0,21.5,30.14,NNW,337,0.0,4.0,39,0.00,CLR,,0.00,WeatherDisplay:10.37,2013-03-07 06:50:00,